Flag for U.S.A. Weather past 2 weeks in Trenton, New Jersey, U.S.A.

Now
68 °F

Clear.


Feels Like: 68 °F
Forecast: 56 / 78 °F
Wind: 8 mph from North

Location: Mercer County Airport

Current Time: Aug 28, 2014 at 9:47:19 PM

Latest Report: Aug 28, 2014 at 8:53 PM


Visibility: 10 mi

Pressure: 30.00 "Hg

Humidity: 55%

Dew point: 51 °F

Location of TrentonLocation

Historic Weather in Trenton — Graph

°F

Trenton temperature yesterday

Maximum temperature yesterday: 89 °F (at 3:53 PM)
Minimum temperature yesterday: 63 °F (at 6:53 AM)
Average temperature yesterday: 77 °F

Past Weeks' High & Low Weather Summary

 TemperatureHumidityPressure
High89 °F (Aug 27, 3:53 PM)93% (Aug 22, 1:01 AM)30.16 "Hg (Aug 22, 1:01 AM)
Low53 °F (Aug 16, 5:53 AM)39% (Aug 16, 3:53 PM)29.74 "Hg (Aug 13, 8:53 PM)
Average71 °F66%29.97 "Hg
* Reported Aug 13 8:53 PM — Aug 28 8:53 PM, Trenton, Weather by CustomWeather, © 2014

Note: Actual official high and low records may vary slightly from our data, if they occured in-between our weather recording intervals... More about our weather records

Advertising

Trenton weather history for previous 24 hours

 ConditionsComfort  
Time TempWeatherWind HumidityBarometerVisibility
8:53 PM
Aug 28
68 °FClear.8 mph55%30.00 "Hg10 mi
7:53 PM71 °FSunny.6 mph47%29.96 "Hg10 mi
6:53 PM75 °FSunny.5 mph42%29.94 "Hg10 mi
5:53 PM77 °FScattered clouds.13 mph39%29.93 "Hg10 mi
4:53 PM78 °FSunny.13 mph39%29.91 "Hg10 mi
3:53 PM78 °FSunny.13 mph40%29.90 "Hg10 mi
2:53 PM77 °FPassing clouds.14 mph42%29.89 "Hg10 mi
1:53 PM77 °FSunny.12 mph44%29.90 "Hg10 mi
12:53 PM76 °FSunny.9 mph43%29.90 "Hg10 mi
11:53 AM74 °FSunny.13 mph50%29.91 "Hg10 mi
10:53 AM72 °FSunny.13 mph53%29.92 "Hg10 mi
9:53 AM72 °FSunny.12 mph53%29.91 "Hg10 mi
8:53 AM70 °FSunny.9 mph59%29.91 "Hg10 mi
7:53 AM69 °FSunny.16 mph61%29.89 "Hg10 mi
6:53 AM67 °FClear.7 mph63%29.88 "Hg10 mi
5:53 AM69 °FClear.9 mph59%29.87 "Hg10 mi
4:53 AM72 °FPassing clouds.8 mph55%29.85 "Hg10 mi
3:53 AM74 °FPassing clouds.9 mph64%29.84 "Hg10 mi
2:53 AM75 °FClear.13 mph74%29.83 "Hg10 mi
1:53 AM75 °FClear.8 mph76%29.83 "Hg10 mi
12:53 AM76 °FClear.8 mph77%29.85 "Hg10 mi
11:53 PM
Aug 27
77 °FPartly cloudy.5 mph74%29.85 "Hg10 mi
10:53 PM78 °FClear.3 mph69%29.85 "Hg10 mi
9:53 PM79 °FClear.No wind67%29.86 "Hg10 mi
Weather by CustomWeather, © 2014

See weather overviewHow to use our weather pages